Regional Weather Roundup
Issued by NWS

Home | Current Version | Previous Version | Graphics & Text | Print | Product List | Glossary On
Versions: 1 2 3 4 5 6 7 8 9 10 11 12 13 14 15 16 17 18 19 20 21 22 23 24 25 26 27 28 29 30 31 32 33 34 35 36 37 38 39 40 41 42 43 44 45 46 47 48 49 50
000
ASUS45 KPSR 311810
RWRAZ

ARIZONA REGIONAL HOURLY WEATHER ROUNDUP
NATIONAL WEATHER SERVICE PHOENIX AZ
1100 AM MST THU JUL 31 2014

NOTE: FAIR INDICATES FEW OR NO CLOUDS BELOW 12,000 FEET WITH NO
SIGNIFICANT WEATHER AND/OR OBSTRUCTIONS TO VISIBILITY.

AZZ001>003-036-311900-
NORTHWEST ARIZONA

CITY           SKY/WX    TMP DP  RH WIND       PRES   REMARKS
BULLHEAD CITY  SUNNY    104  50  16 NW14      29.83S HX 101
KINGMAN        SUNNY     96  46  18 CALM      30.06F
6HR MIN TEMP:  75; 6HR MAX TEMP:  96;

$$

AZZ004>008-015-016-018-311900-
NORTH CENTRAL ARIZONA

CITY           SKY/WX    TMP DP  RH WIND       PRES   REMARKS
GRAND CANYON   PTSUNNY   82  45  27 W9        30.31S
6HR MIN TEMP:  51; 6HR MAX TEMP:  83;

WILLIAMS       PTSUNNY   81  46  30 CALM      30.38F
PRESCOTT       CLOUDY    88  48  25 SE12      30.20S
6HR MIN TEMP:  68; 6HR MAX TEMP:  88;

FLAGSTAFF      PTSUNNY   79  47  32 SW13      30.34F
6HR MIN TEMP:  54; 6HR MAX TEMP:  79;

PAYSON         CLOUDY    79  54  41 S10G16    30.27R
PAGE           MOSUNNY   90  51  26 N7        30.12F
6HR MIN TEMP:  75; 6HR MAX TEMP:  90;

$$

AZZ009>014-017-311900-
NORTHEAST ARIZONA

CITY           SKY/WX    TMP DP  RH WIND       PRES   REMARKS
WINSLOW        PTSUNNY   91  48  22 VRB5      30.17F
6HR MIN TEMP:  69; 6HR MAX TEMP:  91;

SAINT JOHNS    SUNNY     87  50  27 W12       30.23F
6HR MIN TEMP:  66; 6HR MAX TEMP:  87;

WINDOW ROCK    MOSUNNY   83  47  28 VRB5      30.29F
6HR MIN TEMP:  55; 6HR MAX TEMP:  83;

SHOW LOW       CLOUDY    75  50  41 S21       30.35S
$$

AZZ023-311900-
GREATER PHOENIX AREA

CITY           SKY/WX    TMP DP  RH WIND       PRES   REMARKS
PHOENIX        PTSUNNY  102  52  18 W6        29.92S
6HR MIN TEMP:  90; 6HR MAX TEMP: 102;

BUCKEYE          N/A     99  54  22 S9        29.93S
GLENDALE       PTSUNNY  100  55  22 S7        29.94S
LUKE AFB       NOT AVBL
6HR MIN TEMP:  90; 6HR MAX TEMP: 100;

DEER VALLEY    CLOUDY    97  54  23 SE7       29.95S
6HR MIN TEMP:  88; 6HR MAX TEMP:  97;

SCOTTSDALE     CLOUDY    97  56  25 S7        29.97S
6HR MIN TEMP:  88; 6HR MAX TEMP:  97;

MESA-FALCON    CLOUDY    97  57  26 S9        29.96R
MESA-GATEWAY   PTSUNNY   99  57  25 SE15      29.97F
CHANDLER       PTSUNNY   99  57  25 E12       29.96R
$$

AZZ027-028-311900-
SOUTHWEST MARICOPA COUNTY AND PINAL COUNTY

CITY           SKY/WX    TMP DP  RH WIND       PRES   REMARKS
CASA GRANDE    MOSUNNY   99  57  25 SE13      29.98S
6HR MIN TEMP:  82; 6HR MAX TEMP:  99;

GILA BEND      MOCLDY   104  52  17 SW14G21   29.90F HX 101
$$

AZZ503-504-507>509-311900-
SOUTHEAST ARIZONA

CITY           SKY/WX    TMP DP  RH WIND       PRES   REMARKS
TUCSON         PTSUNNY   93  54  26 SE6       30.07F
6HR MIN TEMP:  82; 6HR MAX TEMP:  94;

DAVIS-MONTHAN  CLOUDY    92  55  28 VRB5      30.05F
6HR MIN TEMP:  80; 6HR MAX TEMP:  92; 6HR PCP: TRACE;

RYAN FIELD       N/A     91  57  31 SW5       30.06F
NOGALES        PTSUNNY   83  60  45 CALM      30.16F
6HR MIN TEMP:  71; 6HR MAX TEMP:  83; 6HR PCP: TRACE;

SIERRA VISTA   CLOUDY    79  55  44 CALM      30.23F
SAFFORD        PTSUNNY   85  56  37 S3        30.12F
6HR MIN TEMP:  77; 6HR MAX TEMP:  86; 6HR PCP: TRACE;

$$

AZZ020-021-025-026-031-311900-
SOUTHWEST ARIZONA

CITY           SKY/WX    TMP DP  RH WIND       PRES   REMARKS
YUMA           PTSUNNY  100  69  36 S16       29.85S HX 106
6HR MIN TEMP:  87; 6HR MAX TEMP: 101;

$$

CAZ031-033-041-043-047-048-061-311900-
SOUTHERN CALIFORNIA

CITY           SKY/WX    TMP DP  RH WIND       PRES   REMARKS
DOWNTOWN L.A.  SUNNY     84  62  47 CALM      29.92S
6HR MIN TEMP:  67; 6HR MAX TEMP:  84;

L.A. AIRPORT   MOSUNNY   75  63  66 SW9       29.94S
6HR MIN TEMP:  67; 6HR MAX TEMP:  75;

SAN DIEGO      MOSUNNY   77  64  64 W8        29.94S
6HR MIN TEMP:  71; 6HR MAX TEMP:  78;

BURBANK        SUNNY     84  59  42 VRB7      29.94S
6HR MIN TEMP:  70; 6HR MAX TEMP:  84;

ONTARIO        MOSUNNY   87  56  34 SW7       29.93F
6HR MIN TEMP:  71; 6HR MAX TEMP:  88;

RIVERSIDE      SUNNY     87  57  35 W5        29.94S
6HR MIN TEMP:  71; 6HR MAX TEMP:  87;

PALM SPRINGS   SUNNY    108  47  13 VRB3      29.84S HX 104
6HR MIN TEMP:  92; 6HR MAX TEMP: 108;

EL CENTRO NAS  PTSUNNY  102  66  30 SE12      29.81S HX 106
6HR MIN TEMP:  83; 6HR MAX TEMP: 102;

IMPERIAL         N/A    N/A N/A N/A MISG      29.81S
BLYTHE           N/A    N/A N/A N/A MISG      29.84S
NEEDLES        MOSUNNY  106  50  15 NE8       29.85S HX 103
6HR MIN TEMP:  92; 6HR MAX TEMP: 107;

$$

NVZ020-UTZ003-311900-
SOUTHERN NEVADA-UTAH

CITY           SKY/WX    TMP DP  RH WIND       PRES   REMARKS
LAS VEGAS      MOSUNNY   96  48  19 SW7       29.93S
6HR MIN TEMP:  83; 6HR MAX TEMP:  98;

SALT LAKE CITY MOSUNNY   80  53  39 CALM      30.18F
6HR MIN TEMP:  62; 6HR MAX TEMP:  81;

$$

NMZ009-TXZ055-311900-
NEW MEXICO-WEST TEXAS

CITY           SKY/WX    TMP DP  RH WIND       PRES   REMARKS
ALBUQUERQUE    PTSUNNY   75  58  55 SW7       30.28F
6HR MIN TEMP:  63; 6HR MAX TEMP:  76;

EL PASO        PTSUNNY   82  59  45 CALM      30.18F
6HR MIN TEMP:  72; 6HR MAX TEMP:  82;

$$


........................KEY........................
SKY/WX - SKY CONDITION/WEATHER
TMP    - TEMPERATURE IN FAHRENHEIT
DP     - DEW POINT IN FAHRENHEIT
RH     - RELATIVE HUMIDITY IN PERCENT
WIND   - DIRECTION AND SPEED IN MILES PER HOUR (MPH)
VRB    - VARIABLE WIND DIRECTION
PRES   - MEAN SEA LEVEL PRESSURE IN INCHES OF MERCURY
         F - FALLING PRESSURE   R - RISING PRESSURE
         S - STEADY PRESSURE
VSB    - VISIBILITY IN MILES
HX     - HEAT INDEX IN FAHRENHEIT
WCI    - WIND CHILL INDEX IN FAHRENHEIT
TC     - TEMPERATURE IN CELSIUS WHICH IS ALSO KNOWN AS
         TEMPERATURE IN CENTIGRADE
AFB    - AIR FORCE BASE
         LUKE AFB IS LUKE AIR FORCE BASE
         DAVIS-MONTHAN IS DAVIS-MONTHAN AIR FORCE BASE
NAS    - NAVAL AIR STATION
         EL CENTRO NAS IS EL CENTRO NAVAL AIR STATION
N/A    - NOT AVAILABLE



USA.gov is the U.S. government's official web portal to all federal, state and local government web resources and services.